Weather History for Andover, NJ

Change the Weather History Date:

Wednesday, November 21, 2012

  Actual Average (KFWN) Record (KFWN)
Temperature  
Mean Temperature 40 °F -  
Max Temperature 53 °F 48 °F 73 °F (1985)
Min Temperature 28 °F 26 °F 13 °F (1966)
Degree Days  
Heating Degree Days 24    
Moisture  
Dew Point 27 °F    
Average Humidity 70    
Maximum Humidity 92    
Minimum Humidity 33    
Precipitation  
Precipitation 0.00 in - - ()
Sea Level Pressure  
Sea Level Pressure 30.23 in    
Wind  
Wind Speed 1 mph (NNE)    
Max Wind Speed 8 mph    
Max Gust Speed -    
Averages and records for this station are not official NWS values.
T = Trace of Precipitation, MM = Missing Value Source: NWS Daily Summary

Daily Weather History Graph

Daily Weather History Graph

Search for Another Location

Airport:

Trip Planner

Search our weather history database for the weather conditions in past years. The results will help you decide how hot, cold, wet, or windy it might be!

Date:

Astronomy

Nov. 21, 2012 Rise Set
Actual Time 6:54 AM EST 4:35 PM EST
Civil Twilight 6:24 AM EST 5:05 PM EST
Nautical Twilight 5:50 AM EST 5:39 PM EST
Astronomical Twilight 5:17 AM EST 6:11 PM EST
Moon 12:53 PM EST (11/21) 12:07 AM EST (11/21)
Length of Visible Light 10h 41m
Length of Day
9h 41m
First Quarter, 61% of the Moon is Illuminated
Nov 21
First Quarter
Nov 28
Full
Dec 6
Last Quarter
Dec 13
New
Dec 20
First Quarter

Hourly Weather History & Observations

Time (EST) Temp. Windchill Dew Point Humidity Pressure Visibility Wind Dir Wind Speed Gust Speed Precip Events Conditions
12:54 AM 35.1 °F - 30.0 °F 82% 30.17 in - Calm Calm - N/A   Unknown
1:54 AM 35.1 °F - 30.0 °F 82% 30.17 in - Calm Calm - N/A   Unknown
2:54 AM 35.1 °F - 30.0 °F 82% 30.18 in - Calm Calm - N/A   Unknown
3:54 AM 34.0 °F - 30.0 °F 85% 30.19 in - Calm Calm - N/A   Unknown
4:54 AM 30.9 °F - 28.0 °F 89% 30.21 in - Calm Calm - N/A   Unknown
5:54 AM 30.9 °F - 28.0 °F 89% 30.22 in - Calm Calm - N/A   Unknown
6:54 AM 28.0 °F - 26.1 °F 92% 30.24 in - Calm Calm - N/A   Unknown
7:54 AM 30.9 °F - 28.0 °F 89% 30.24 in - Calm Calm - N/A   Unknown
8:54 AM 37.0 °F 31.6 °F 28.0 °F 70% 30.25 in - NE 6.9 mph - N/A   Unknown
9:54 AM 42.1 °F - 30.0 °F 62% 30.26 in - Calm Calm - N/A   Unknown
10:54 AM 46.0 °F 43.1 °F 28.9 °F 51% 30.24 in - NNE 5.8 mph - N/A   Unknown
11:54 AM 50.0 °F - 25.0 °F 38% 30.22 in - Variable 4.6 mph - N/A   Unknown
12:54 PM 51.1 °F - 23.0 °F 33% 30.20 in - NNE 5.8 mph - N/A   Unknown
1:54 PM 52.0 °F - 25.0 °F 35% 30.19 in - North 8.1 mph - N/A   Unknown
2:54 PM 53.1 °F - 26.1 °F 35% 30.19 in - Calm Calm - N/A   Unknown
3:54 PM 50.0 °F - 25.0 °F 38% 30.21 in - North 5.8 mph - N/A   Unknown
4:54 PM 42.1 °F - 28.0 °F 58% 30.22 in - Calm Calm - N/A   Unknown
5:54 PM 37.0 °F - 28.9 °F 73% 30.24 in - Calm Calm - N/A   Unknown
6:54 PM 33.1 °F - 28.0 °F 82% 30.26 in - Calm Calm - N/A   Unknown
7:54 PM 32.0 °F - 28.0 °F 85% 30.27 in - Calm Calm - N/A   Unknown
8:54 PM 30.0 °F - 25.0 °F 82% 30.27 in - Calm Calm - N/A   Unknown
9:54 PM 30.0 °F - 26.1 °F 85% 30.27 in - Calm Calm - N/A   Unknown
10:54 PM 28.9 °F - 25.0 °F 85% 30.27 in - Calm Calm - N/A   Unknown
11:54 PM 28.0 °F - 25.0 °F 88% 30.26 in - Calm Calm - N/A   Unknown